{"data":{"norad_id":66348,"epoch":"2026-09-20T13:46:52.550112Z","epoch_age_seconds":86328,"freshness":"FRESH","line1":"1 66348U 25254A   26263.57421933  .00011858  00000+0  36159-3 0  9997","line2":"2 66348  53.1585  45.0888 0001124  98.3461 261.7670 15.34393357 50005","mean_motion":15.34393357,"eccentricity":0.0001124,"inclination_deg":53.1585,"raan_deg":45.0888,"arg_perigee_deg":98.3461,"mean_anomaly_deg":261.767,"bstar":0.00036159,"rev_number":5000,"period_min":93.84816438566,"perigee_km":461.95407201201,"apogee_km":463.49189733656,"semimajor_km":6840.8599846743,"source":"CELESTRAK","updated_at":"2026-09-21T09:00:35.878934Z"}}